Home   Weather   Kralendijk   Past weeks

Flag for Caribbean Netherlands Past Weather in Kralendijk, Bonaire, Caribbean Netherlands — Yesterday and Last 2 Weeks

Now
86 °F

Warm.


Feels Like: 95 °F
Forecast: N/A
Wind: 8 mph from Southeast

Location: Flamingo Airport - Bonaire

Current Time: Aug 20, 2017 at 5:21:41 pm

Latest Report: Aug 20, 2017 at 4:55 pm


Visibility: N/A

Pressure: 29.83 "Hg

Humidity: 70%

Dew Point: 75 °F

Location of KralendijkLocation

Past Weather in Kralendijk — Graph

°F

Kralendijk Temperature Yesterday

Maximum temperature yesterday: 88 °F (at 1:55 pm)
Minimum temperature yesterday: 79 °F (at 4:55 am)
Average temperature yesterday: 83 °F

High & Low Weather Summary for the Past Weeks

 TemperatureHumidityPressure
High90 °F (Aug 6, 12:55 pm)94% (Aug 10, 10:05 am)29.98 "Hg (Aug 10, 10:05 am)
Low77 °F (Aug 10, 10:05 am)62% (Aug 6, 9:55 am)29.71 "Hg (Aug 19, 3:55 pm)
Average85 °F77%29.87 "Hg
* Reported Aug 5 3:55 pm — Aug 20 3:55 pm, Kralendijk. Weather by CustomWeather, © 2017

Note: Actual official high and low records may vary slightly from our data, if they occured in-between our weather recording intervals... More about our weather records

Advertising

Kralendijk Weather History for the Previous 24 Hours

Scroll right to see more
 ConditionsComfort  
Time TempWeatherWind HumidityBarometerVisibility
3:55 pm
Sun, Aug 20
90 °FMostly cloudy.9 mph67%29.83 "HgN/A
2:55 pm90 °FScattered clouds.12 mph71%29.86 "HgN/A
1:55 pm90 °FPassing clouds.12 mph67%29.86 "HgN/A
12:55 pm90 °FHot.16 mph67%29.89 "HgN/A
11:55 am90 °FScattered clouds.16 mph71%29.89 "HgN/A
10:55 am88 °FScattered clouds.15 mph75%29.92 "HgN/A
9:55 am88 °FBroken clouds.20 mph75%29.89 "HgN/A
8:55 am86 °FBroken clouds.20 mph79%29.89 "HgN/A
7:55 am84 °FBroken clouds.14 mph84%29.86 "HgN/A
6:55 am82 °FPassing clouds.12 mph89%29.83 "HgN/A
5:55 am82 °FPartly cloudy.13 mph89%29.80 "HgN/A
4:55 am82 °FPassing clouds.13 mph84%29.80 "HgN/A
3:55 am82 °FPassing clouds.13 mph84%29.77 "HgN/A
2:55 am82 °FPassing clouds.12 mph89%29.80 "HgN/A
1:55 am82 °FPassing clouds.16 mph89%29.80 "HgN/A
12:55 am82 °FClear.15 mph89%29.80 "HgN/A
11:55 pm
Sat, Aug 19
82 °FClear.15 mph89%29.83 "HgN/A
10:55 pm82 °FWarm.14 mph84%29.83 "HgN/A
9:55 pm82 °FPassing clouds.15 mph84%29.83 "HgN/A
8:55 pm82 °FPassing clouds.14 mph84%29.80 "HgN/A
7:55 pm84 °FPassing clouds.13 mph79%29.77 "HgN/A
6:55 pm84 °FPassing clouds.13 mph79%29.74 "HgN/A
5:55 pm84 °FPassing clouds.9 mph79%29.71 "HgN/A
Weather by CustomWeather, © 2017

See weather overviewHow to use our weather pages